Regional Weather Roundup
Issued by NWS Goodland, KS

Home | Current Version | Previous Version | Text Only | Print | Product List | Glossary Off
Versions: 1 2 3 4 5 6 7 8 9 10 11 12 13 14 15 16 17 18 19 20 21 22 23 24 25 26 27 28 29 30 31 32 33 34 35 36 37 38 39 40 41 42 43 44 45 46 47 48 49 50

000
ASUS43 KGLD 241459
RWRGLD

GOODLAND FORECAST AREA HOURLY WEATHER ROUNDUP
NATIONAL WEATHER SERVICE GOODLAND KS
900 AM MDT FRI OCT 24 2014

...OFFICIAL OBSERVATIONS...

CITY           SKY/WX    TMP DP  RH WIND       PRES   REMARKS
GOODLAND KS    SUNNY     62  44  51 W8        30.09R
HILL CITY KS   CLOUDY    56  52  86 W7        30.02R
IMPERIAL NEB   PTSUNNY   57  40  52 CALM      30.06R
MCCOOK NEB     PTSUNNY   55  45  68 W10       30.02R
AKRON CO       CLOUDY    58  33  39 W14       30.13R
BURLINGTON CO  MOSUNNY   63  39  41 W7        30.12R
LIMON CO       PTSUNNY   63  31  30 NW8       30.20R
$$

...UNOFFICIAL OBSERVATIONS...

CITY           SKY/WX    TMP DP  RH WIND       PRES   REMARKS
$$



USA.gov is the U.S. government's official web portal to all federal, state and local government web resources and services.